Wind_Speed
44 49 51 51 53 54 54 54 61 79 78 81 85 85 83 82 80 80 76 73 72 72 71 69 67 66 61 60 56 53 48 45 42 39 40 42 45 44 42 40 42 38 41 38 38 35 35
44 46 46 49 49 52 55 56 58 65 76 77 82 84 86 84 82 81 81 78 75 74 73 71 71 68 67 63 59 56 50 48 45 41 40 41 45 48 47 44 42 45 41 37 40 39 39
43 44 45 47 48 48 54 57 58 63 66 72 77 84 83 86 85 82 81 81 80 77 75 74 73 71 71 65 63 59 54 50 46 44 42 42 43 45 48 47 46 44 41 41 41 41 40
42 44 43 44 45 46 49 57 59 60 65 65 72 78 82 83 86 85 82 82 82 79 79 77 75 75 74 70 66 61 59 53 49 47 44 42 42 44 47 49 43 45 45 43 39 43 41
43 44 44 42 46 46 45 48 56 62 63 66 66 72 77 79 84 87 85 82 82 82 81 81 79 79 77 71 68 63 63 58 54 51 48 44 43 44 45 45 43 45 44 40 42 42 41
47 47 47 44 45 45 45 45 45 53 62 66 66 68 72 76 77 84 87 85 81 81 83 83 83 80 77 72 68 67 66 63 59 55 52 48 46 45 45 45 45 43 42 41 42 45 41
48 50 50 47 47 45 45 47 50 50 51 62 68 68 70 72 75 78 84 85 84 83 86 88 83 79 79 77 75 71 70 67 64 61 56 52 51 47 41 46 45 43 46 46 46 39 44
51 53 55 52 50 48 46 46 53 50 48 53 63 68 70 71 73 74 79 83 81 83 83 86 86 85 80 78 76 71 72 71 70 65 59 58 55 46 46 49 48 47 49 45 46 43 46
52 55 54 55 53 51 50 49 53 55 51 48 55 62 69 71 73 76 75 73 73 80 84 90 85 86 80 83 79 74 74 71 70 68 63 61 55 50 50 48 49 48 48 46 46 45 47
56 56 57 49 44 45 49 51 53 60 56 50 47 56 60 66 72 72 71 69 70 78 82 91 90 89 86 83 85 75 75 73 74 72 68 66 58 56 54 51 47 49 49 50 48 48 48
54 58 46 33 30 32 37 46 52 53 58 55 48 47 51 58 62 66 63 67 67 73 76 92 92 86 84 85 81 79 78 77 76 75 73 69 66 62 60 53 53 50 51 51 52 48 51
55 55 34 23 20 21 26 34 44 48 58 57 53 49 49 46 50 52 64 65 65 71 78 80 90 92 85 88 80 83 82 76 74 75 75 72 68 67 60 58 53 51 56 54 53 50 57
55 51 28 18 16 15 18 25 32 39 49 58 55 54 52 50 33 49 56 64 65 74 74 81 77 91 90 86 83 83 87 85 83 81 82 75 73 73 67 64 60 58 59 56 57 58 58
52 49 25 13 10 9 10 13 21 29 38 53 54 54 52 45 53 56 61 66 71 72 75 81 78 81 92 87 88 83 85 88 86 80 77 79 81 77 72 68 66 63 63 60 63 57 57
50 49 23 11 9 10 13 13 14 20 27 37 49 53 52 53 57 61 65 69 70 70 69 70 70 71 88 89 88 86 86 88 84 84 81 80 81 74 77 70 64 68 69 57 50 52 59
49 49 27 14 14 12 13 14 17 20 28 38 43 51 52 55 58 64 67 70 70 70 64 64 70 69 68 84 85 88 86 90 84 81 83 76 77 76 78 78 74 72 63 54 57 62 63
48 48 35 17 19 16 15 18 21 22 23 29 35 42 48 54 58 67 71 72 70 66 68 66 68 72 76 67 64 75 92 88 87 81 80 86 78 77 68 86 80 73 73 72 63 63 64
45 46 42 18 21 19 19 19 21 17 22 23 30 41 42 48 55 60 61 70 67 66 66 67 74 64 73 69 69 66 73 91 85 81 84 79 89 82 81 81 80 73 73 69 66 68 67
43 44 45 27 20 22 22 20 20 21 23 25 22 24 35 44 52 57 62 59 61 69 72 71 74 69 61 69 75 62 66 86 84 83 83 80 85 86 83 68 78 81 78 74 71 68 60
41 42 42 41 17 23 23 22 20 22 28 29 27 22 38 40 37 47 62 65 59 58 68 76 78 77 70 63 62 59 56 71 79 79 79 74 79 92 91 89 80 80 75 71 69 70 66
41 40 40 41 31 20 23 25 24 23 28 34 36 33 32 38 37 42 47 59 62 55 54 58 74 79 76 83 75 58 62 68 74 68 77 71 76 76 80 82 79 77 74 70 69 66 67
40 39 37 38 40 22 21 24 25 29 28 39 43 41 39 42 42 43 41 54 53 62 51 52 57 67 81 80 72 50 52 63 73 74 75 72 74 72 74 69 75 76 71 65 66 66 69
41 39 37 36 38 33 19 22 24 29 30 32 40 45 43 47 38 34 48 40 43 47 54 51 58 62 80 85 71 47 50 60 53 63 76 70 71 68 72 72 69 77 77 74 77 69 66
42 38 36 35 36 37 23 19 21 27 32 32 30 44 50 48 51 43 43 40 43 42 46 50 53 62 70 65 76 64 58 47 54 53 72 73 72 67 69 65 74 75 70 73 79 73 65
43 39 37 34 34 34 32 20 19 25 29 33 37 41 44 55 50 52 52 49 44 42 48 50 53 62 61 70 76 66 53 53 49 62 56 70 66 62 67 68 65 65 63 66 65 68 71
43 41 37 35 33 32 34 26 20 22 24 22 18 21 32 41 54 36 41 46 51 40 40 47 46 53 60 77 73 69 60 58 58 49 62 71 68 67 68 61 68 68 68 64 65 72 64
41 41 39 36 34 32 32 32 19 19 20 13 8 8 18 34 34 52 37 42 48 51 40 42 44 48 57 69 78 77 59 45 61 70 56 57 69 74 71 74 73 75 67 64 74 71 59
41 40 40 36 35 33 31 33 21 17 18 18 13 15 22 24 32 39 45 44 54 57 48 37 46 62 61 63 67 76 58 70 51 52 63 64 64 69 70 71 72 71 68 75 75 70 66
41 39 39 36 34 33 30 31 31 14 20 18 19 16 18 19 29 39 54 54 45 48 47 42 49 57 61 64 70 78 52 62 62 61 67 66 59 53 61 59 52 50 55 62 65 64 64
Wind_Direction
289 287 277 270 265 262 258 258 250 236 235 232 232 229 228 228 227 228 227 225 226 227 229 228 229 228 227 224 226 225 229 235 236 237 236 236 235 233 233 231 231 231 234 238 243 245 247
290 287 276 272 266 262 258 253 250 241 235 232 230 231 227 228 227 228 228 227 224 227 227 227 228 228 229 226 225 227 225 231 236 237 237 237 236 235 234 233 234 232 234 239 242 245 247
287 287 279 272 269 266 258 253 247 244 238 236 230 229 229 227 227 227 228 228 227 225 227 227 227 229 229 227 226 227 226 226 232 236 237 238 238 238 236 235 235 238 236 238 241 244 246
287 288 287 277 270 270 264 253 247 242 238 235 231 230 228 228 227 227 227 228 229 227 226 227 227 227 228 227 227 226 228 225 227 233 236 237 238 237 239 239 238 239 236 239 240 241 245
289 290 290 284 276 270 269 258 249 242 238 233 232 230 230 228 227 227 227 226 228 229 228 225 227 227 226 225 227 227 228 227 226 229 233 235 236 237 237 239 235 236 237 238 241 242 245
291 290 290 289 278 272 265 257 248 242 237 235 230 229 230 230 229 228 228 227 227 230 230 227 225 226 225 225 225 227 229 228 227 227 230 233 235 236 238 236 235 236 237 237 240 247 238
294 293 292 291 281 272 263 254 248 246 238 235 231 227 228 229 232 230 228 228 227 229 231 228 227 227 229 223 222 224 227 228 228 228 227 229 233 235 239 240 235 232 234 232 235 244 245
298 298 296 291 281 271 258 251 242 241 238 234 232 229 225 227 230 231 230 227 229 232 233 232 230 226 227 224 225 223 226 228 229 229 228 229 231 232 233 235 235 232 235 234 240 246 248
307 307 302 293 280 265 251 240 238 234 235 236 231 228 228 226 227 230 232 228 233 231 233 230 231 231 227 228 226 221 224 228 230 230 230 231 233 232 235 235 236 236 238 237 241 244 247
316 315 309 295 276 259 245 235 232 230 231 230 234 228 225 227 227 228 229 231 232 233 233 230 228 229 228 229 225 223 224 225 229 227 229 231 231 231 233 235 235 235 237 236 238 242 248
325 323 315 298 280 262 246 235 231 229 226 227 225 227 224 228 229 228 229 231 232 233 237 230 227 228 230 229 228 224 224 224 226 229 227 228 230 231 232 231 235 234 236 238 238 241 246
332 332 320 301 285 266 250 238 233 230 223 222 223 223 222 225 228 225 228 227 232 230 234 231 230 227 228 227 226 229 228 224 227 229 228 228 232 231 233 235 236 237 239 238 240 240 243
339 338 324 302 285 268 253 241 236 232 225 221 225 225 227 229 224 228 229 230 227 230 230 229 232 231 227 228 228 228 228 226 225 227 228 227 229 231 228 234 233 234 237 239 241 240 241
345 344 326 302 287 276 270 254 239 230 228 223 225 228 229 219 221 223 225 232 233 232 230 230 231 233 230 226 228 229 232 229 226 228 231 232 230 229 229 230 236 236 238 239 242 243 247
349 349 327 287 265 270 269 272 244 226 225 226 229 226 226 223 226 227 232 236 236 233 229 230 232 234 234 230 230 230 230 231 229 227 228 233 233 236 239 234 235 239 237 242 241 245 249
352 354 335 270 260 268 275 262 263 247 247 237 229 231 231 229 230 233 239 243 242 236 230 230 232 228 232 233 232 232 229 232 230 228 229 233 240 237 240 239 232 236 240 235 236 240 247
352 355 347 273 261 267 271 269 274 271 243 236 235 238 234 235 236 236 239 242 241 236 232 231 233 229 229 232 236 235 234 231 231 230 230 228 237 239 239 240 237 236 237 241 242 243 247
352 355 356 310 255 261 270 279 280 259 235 242 253 241 224 230 231 230 226 239 242 236 232 230 230 227 228 229 236 240 238 231 231 232 232 233 234 237 241 243 246 245 241 244 247 246 250
351 355 357 344 260 254 266 276 285 265 246 243 245 234 219 229 230 228 223 227 232 234 230 230 231 230 226 230 227 228 241 233 230 233 233 231 234 234 236 234 241 241 240 242 246 246 246
351 354 356 357 304 254 255 267 277 267 242 241 241 236 224 228 230 225 223 223 224 227 235 232 235 232 226 207 212 223 227 229 230 232 230 232 238 240 237 240 247 249 247 250 250 252 254
350 353 356 356 350 277 249 258 268 271 248 236 235 230 231 227 232 230 227 227 226 223 229 234 235 231 228 224 223 221 233 230 228 227 231 231 233 238 240 242 245 252 252 254 255 255 255
348 351 355 356 356 329 264 250 259 272 268 239 234 236 238 228 229 229 235 232 222 227 229 233 234 230 226 215 209 212 220 232 230 228 233 232 235 236 240 238 242 245 250 250 248 251 252
348 349 353 355 356 350 293 262 266 269 276 262 241 236 236 231 221 224 230 237 234 231 236 239 239 230 217 213 209 206 226 226 219 234 233 235 233 233 236 236 236 236 239 247 249 248 252
349 347 350 353 354 356 330 274 268 272 279 261 248 236 234 234 227 234 233 236 231 231 237 239 234 226 226 221 226 228 224 217 220 218 235 234 235 238 242 240 234 238 242 246 245 255 255
347 346 347 351 351 354 350 303 274 280 272 261 266 254 244 230 234 236 230 229 223 228 230 231 233 231 223 224 220 214 201 214 212 226 230 231 231 230 235 237 244 243 238 246 250 254 251
344 346 345 346 349 350 356 336 288 287 275 280 259 239 240 232 225 236 237 231 224 235 236 233 227 224 221 224 232 217 206 210 216 222 236 230 228 229 230 234 240 242 242 245 249 247 249
340 343 344 344 345 347 353 354 311 289 280 279 277 261 225 221 228 222 217 225 227 236 244 239 227 219 221 226 230 229 218 232 227 212 205 226 228 234 236 236 238 242 243 247 243 250 253
338 340 343 343 344 345 349 356 340 287 266 264 264 240 253 237 232 228 225 229 231 234 248 234 238 213 213 224 232 220 223 219 224 223 224 232 234 233 237 236 239 245 247 245 252 253 254
337 335 339 342 342 343 345 352 356 303 254 258 242 237 232 238 236 231 227 231 232 238 241 253 229 213 218 225 229 212 219 217 227 238 226 230 235 244 239 245 251 240 239 245 247 250 255
Height
5655 5651 5648 5647 5646 5647 5648 5649 5651 5659 5667 5675 5684 5693 5703 5711 5720 5728 5736 5744 5753 5760 5769 5776 5783 5790 5795 5800 5807 5815 5822 5828 5834 5839 5843 5847 5851 5855 5859 5864 5866 5871 5872 5875 5877 5880 5881
5643 5638 5635 5633 5633 5632 5632 5633 5636 5640 5647 5656 5666 5675 5685 5695 5704 5712 5721 5729 5738 5746 5754 5762 5771 5777 5783 5792 5797 5807 5813 5819 5825 5831 5835 5839 5843 5846 5851 5855 5861 5860 5866 5870 5871 5874 5875
5630 5626 5623 5620 5618 5618 5618 5619 5622 5625 5631 5639 5648 5657 5668 5678 5688 5698 5706 5714 5723 5731 5739 5747 5756 5763 5770 5786 5788 5797 5803 5809 5817 5821 5827 5831 5836 5841 5843 5847 5852 5858 5861 5863 5866 5867 5869
5618 5614 5610 5607 5605 5605 5604 5603 5606 5610 5616 5623 5632 5640 5650 5661 5671 5681 5690 5699 5707 5715 5723 5732 5741 5748 5760 5774 5780 5789 5795 5801 5807 5812 5817 5823 5828 5832 5837 5839 5848 5851 5854 5857 5862 5858 5862
5607 5603 5598 5595 5592 5590 5589 5588 5590 5595 5601 5607 5617 5626 5633 5644 5654 5664 5674 5683 5691 5699 5707 5717 5727 5736 5748 5763 5773 5781 5784 5791 5796 5802 5808 5815 5819 5824 5829 5834 5839 5843 5848 5852 5853 5853 5854
5594 5590 5586 5583 5578 5576 5574 5575 5577 5580 5586 5593 5601 5611 5620 5627 5635 5645 5655 5667 5676 5683 5691 5699 5713 5724 5741 5757 5764 5769 5774 5780 5786 5792 5798 5805 5810 5815 5821 5826 5831 5837 5842 5845 5846 5843 5847
5582 5576 5572 5569 5564 5561 5561 5561 5564 5567 5571 5578 5587 5596 5605 5612 5619 5627 5638 5650 5664 5672 5675 5696 5713 5721 5726 5737 5743 5753 5760 5768 5775 5781 5789 5796 5799 5806 5817 5819 5825 5829 5831 5835 5839 5838 5837
5569 5562 5556 5550 5545 5543 5543 5546 5550 5554 5559 5564 5572 5580 5589 5597 5604 5611 5621 5641 5656 5656 5666 5677 5687 5698 5709 5720 5732 5744 5748 5757 5762 5772 5780 5784 5789 5803 5805 5809 5815 5820 5822 5829 5831 5832 5830
5556 5546 5537 5529 5522 5520 5522 5528 5533 5540 5547 5552 5557 5565 5574 5581 5587 5597 5616 5641 5630 5643 5643 5654 5670 5683 5701 5706 5717 5731 5737 5747 5755 5761 5771 5775 5788 5793 5794 5800 5807 5813 5816 5822 5823 5823 5822
5541 5529 5515 5503 5497 5496 5500 5508 5516 5525 5534 5541 5547 5552 5561 5567 5573 5593 5612 5617 5617 5617 5621 5633 5648 5659 5674 5687 5697 5719 5729 5735 5737 5749 5758 5764 5776 5781 5785 5790 5799 5803 5809 5811 5813 5814 5815
5527 5512 5496 5487 5483 5482 5486 5492 5501 5509 5520 5529 5536 5543 5550 5557 5573 5583 5604 5601 5600 5606 5594 5619 5635 5654 5663 5673 5699 5703 5714 5716 5727 5738 5740 5757 5762 5769 5773 5785 5787 5796 5797 5802 5804 5808 5808
5515 5498 5486 5480 5477 5476 5478 5483 5489 5498 5507 5518 5527 5534 5541 5550 5562 5580 5572 5582 5580 5579 5571 5601 5617 5632 5645 5664 5679 5688 5693 5709 5719 5720 5729 5743 5751 5756 5770 5774 5778 5787 5786 5792 5795 5799 5793
5506 5491 5481 5477 5474 5473 5475 5478 5483 5490 5497 5507 5517 5524 5533 5541 5565 5559 5559 5557 5557 5547 5583 5597 5606 5620 5639 5654 5669 5667 5678 5688 5695 5706 5715 5732 5736 5743 5753 5759 5767 5771 5775 5780 5783 5784 5785
5502 5487 5478 5475 5474 5473 5474 5475 5478 5483 5489 5497 5506 5514 5524 5541 5536 5541 5541 5538 5534 5546 5573 5592 5602 5611 5623 5643 5648 5656 5659 5670 5684 5698 5714 5717 5719 5730 5743 5749 5755 5760 5762 5770 5770 5775 5783
5499 5486 5476 5474 5473 5474 5474 5475 5478 5481 5485 5490 5496 5504 5515 5526 5527 5528 5527 5521 5526 5544 5573 5582 5591 5600 5608 5621 5632 5640 5643 5656 5677 5691 5698 5706 5713 5727 5727 5740 5744 5747 5748 5769 5765 5769 5765
5496 5485 5475 5472 5472 5472 5472 5473 5475 5478 5481 5483 5488 5493 5506 5511 5515 5515 5512 5512 5522 5544 5564 5573 5573 5586 5594 5605 5614 5619 5630 5645 5664 5679 5694 5702 5707 5714 5715 5716 5728 5729 5747 5743 5749 5752 5755
5493 5483 5473 5469 5468 5469 5469 5469 5469 5470 5471 5473 5477 5482 5495 5497 5501 5499 5495 5503 5520 5537 5549 5558 5564 5573 5582 5594 5602 5609 5619 5646 5655 5668 5681 5690 5695 5701 5702 5696 5714 5720 5723 5729 5739 5744 5746
5491 5481 5472 5464 5464 5464 5464 5464 5463 5464 5466 5468 5469 5471 5479 5482 5482 5483 5488 5495 5511 5525 5538 5545 5545 5555 5568 5582 5589 5596 5603 5625 5645 5657 5659 5673 5678 5681 5682 5697 5695 5705 5716 5721 5721 5733 5732
5489 5480 5470 5461 5458 5459 5459 5460 5459 5458 5460 5462 5464 5466 5467 5469 5467 5474 5483 5487 5496 5509 5520 5530 5532 5546 5564 5571 5575 5584 5592 5617 5630 5635 5641 5660 5652 5659 5669 5671 5673 5687 5704 5708 5709 5720 5715
5488 5478 5469 5460 5454 5454 5454 5454 5454 5453 5454 5455 5456 5458 5460 5460 5464 5467 5472 5481 5487 5497 5507 5518 5522 5536 5549 5551 5562 5572 5581 5600 5611 5617 5629 5634 5638 5641 5648 5661 5681 5681 5691 5693 5700 5701 5711
5485 5476 5467 5459 5452 5447 5448 5447 5448 5448 5447 5448 5447 5448 5452 5453 5455 5459 5465 5473 5479 5488 5495 5502 5507 5516 5530 5539 5548 5559 5572 5586 5592 5601 5606 5610 5615 5629 5643 5654 5663 5665 5674 5679 5681 5690 5691
5482 5474 5465 5456 5448 5442 5440 5441 5441 5440 5439 5437 5439 5441 5444 5449 5449 5453 5455 5459 5468 5480 5484 5490 5494 5505 5515 5525 5539 5552 5560 5572 5576 5589 5590 5599 5604 5619 5624 5640 5648 5649 5651 5659 5665 5673 5681
5479 5471 5463 5454 5446 5438 5433 5433 5432 5431 5429 5427 5432 5435 5436 5440 5441 5443 5449 5460 5464 5474 5475 5483 5488 5493 5500 5517 5531 5543 5552 5557 5559 5574 5577 5586 5596 5599 5603 5625 5631 5622 5637 5645 5650 5661 5670
5476 5467 5460 5452 5444 5435 5427 5425 5425 5422 5420 5418 5421 5422 5423 5428 5431 5440 5448 5451 5455 5461 5466 5472 5477 5481 5494 5521 5525 5529 5535 5537 5544 5550 5561 5571 5583 5589 5595 5608 5588 5609 5628 5638 5640 5644 5658
5473 5464 5457 5449 5441 5433 5424 5418 5417 5415 5412 5410 5411 5409 5411 5416 5424 5430 5437 5442 5448 5451 5453 5459 5467 5474 5495 5503 5500 5509 5516 5526 5529 5535 5546 5555 5570 5570 5576 5583 5589 5602 5616 5622 5631 5634 5639
5470 5461 5453 5445 5438 5430 5421 5413 5409 5406 5404 5402 5399 5399 5398 5404 5414 5422 5425 5432 5436 5442 5445 5449 5460 5472 5479 5480 5481 5487 5497 5515 5520 5524 5534 5545 5553 5556 5563 5566 5567 5588 5613 5621 5619 5602 5627
5465 5458 5450 5442 5434 5426 5417 5409 5403 5400 5397 5395 5393 5393 5394 5400 5406 5413 5417 5423 5428 5432 5436 5442 5450 5453 5459 5465 5472 5479 5489 5498 5501 5513 5519 5522 5534 5537 5549 5551 5560 5583 5606 5601 5585 5600 5620
5461 5453 5445 5437 5430 5423 5414 5405 5398 5394 5392 5391 5391 5391 5393 5394 5398 5401 5407 5412 5416 5420 5426 5439 5432 5434 5443 5450 5460 5470 5480 5488 5494 5504 5510 5518 5521 5526 5539 5540 5547 5583 5592 5576 5581 5588 5598
5455 5448 5441 5432 5425 5419 5411 5402 5394 5390 5387 5387 5387 5388 5388 5391 5394 5395 5398 5402 5408 5413 5415 5415 5419 5426 5434 5440 5446 5463 5466 5477 5490 5492 5502 5503 5512 5522 5528 5536 5559 5565 5566 5562 5562 5574 5580